This is the latest recevied weather packets stored in our database for station/object KE3HG-2. If no packets are shown the sender has not sent any weather packets the latest 10 day(s).
| Time | Temp. | Humidity | Pressure | Rain* | Wind** | Luminosity | Snow |
|---|---|---|---|---|---|---|---|
| 1777836262 | 13.89° C | 22% | 757.5 hPa | 0 mm | - | - | - |
| 1777835662 | 13.89° C | 24% | 757.5 hPa | 0 mm | - | - | - |
| 1777835062 | 14.44° C | 24% | 757.5 hPa | 0 mm | - | - | - |
| 1777834053 | 14.44° C | 24% | 757.5 hPa | 0 mm | - | - | - |
| 1777833453 | 14.44° C | 22% | 757.5 hPa | 0 mm | - | - | - |
| 1777832853 | 13.89° C | 23% | 757.5 hPa | 0 mm | - | - | - |
| 1777831826 | 13.89° C | 22% | 757.5 hPa | 0 mm | - | - | - |
| 1777831226 | 13.33° C | 25% | 757.5 hPa | 0 mm | - | - | - |
| 1777830625 | 13.33° C | 23% | 757.5 hPa | 0 mm | - | - | - |
| 1777829589 | 13.89° C | 23% | 757.5 hPa | 0 mm | - | - | - |
| 1777828989 | 13.33° C | 24% | 757.5 hPa | 0 mm | - | - | - |
| 1777828389 | 13.33° C | 26% | 757.5 hPa | 0 mm | - | - | - |
| 1777827362 | 12.78° C | 25% | 757.5 hPa | 0 mm | - | - | - |
| 1777826762 | 12.78° C | 24% | 757.5 hPa | 0 mm | - | - | - |
| 1777826162 | 12.22° C | 27% | 757.5 hPa | 0 mm | - | - | - |
| 1777825124 | 11.67° C | 27% | 757.5 hPa | 0 mm | - | - | - |
| 1777824523 | 11.67° C | 27% | 757.5 hPa | 0 mm | - | - | - |
| 1777823923 | 11.11° C | 30% | 757.5 hPa | 0 mm | - | - | - |
| 1777822899 | 11.11° C | 30% | 757.5 hPa | 0 mm | - | - | - |
| 1777822299 | 10.56° C | 31% | 757.5 hPa | 0 mm | - | - | - |
| 1777821698 | 10.56° C | 33% | 757.5 hPa | 0 mm | - | - | - |
| 1777820672 | 9.44° C | 34% | 757.5 hPa | 0 mm | - | - | - |
| 1777820072 | 10° C | 36% | 757.5 hPa | 0 mm | - | - | - |
| 1777819472 | 10.56° C | 36% | 757.5 hPa | 0 mm | - | - | - |
| 1777818444 | 9.44° C | 36% | 757.5 hPa | 0 mm | - | - | - |
* Rain latest hour (hover to see other rain measurements)
** Current wind speed in m/s (hover to see current wind gust speed)